Location: Auckland
(36.8500°S, 174.7800°E)
Time: 08:42:58
(UTC+12:00)

ISS - Pass Details

Date: 24 March 2026
Orbit: 416 x 424 km, 51.6° (Epoch: 11 April)

Event Time Altitude Azimuth Distance (km) Brightness Sun altitude
Exits shadow 05:37:36 13° 187° (S) 1,337 -1.1 -22.4°
Drops below altitude 10° 05:38:41 10° 169° (S) 1,522 -0.6 -22.2°
Sets 05:41:36 0° 142° (SE) 2,393 0.9 -21.7°
